Location: ???????
(55.4362°N, 38.1183°E)
Time: 11:52:49
(UTC+00:00)

USA 215 - Visible Passes

Search period start: 22 October 2021 00:00
Search period end: 01 November 2021 00:00
Orbit: 1093 x 1114 km, 123.0° (Epoch: 17 October)

Date Brightness Start Highest point End Pass type
(mag) Time Alt. Az. Time Alt. Az. Time Alt. Az.
22 Oct 3.4 15:15:18 11° ENE 15:21:42 69° SSE 15:28:15 10° SW visible
22 Oct 3.2 17:02:39 45° ENE 17:04:54 81° N 17:11:29 10° W visible
22 Oct 4.0 18:50:01 48° WNW 18:50:01 48° WNW 18:54:30 10° WNW visible
22 Oct 5.6 20:37:22 12° WNW 20:37:22 12° WNW 20:37:41 10° WNW visible
23 Oct 3.2 16:18:13 27° ENE 16:22:09 88° SSE 16:28:43 10° WSW visible
23 Oct 3.3 18:05:34 76° NW 18:05:34 76° NW 18:11:44 10° W visible
23 Oct 5.1 19:52:55 21° WNW 19:52:55 21° WNW 19:54:52 10° WNW visible
24 Oct 3.3 15:33:47 15° ENE 15:39:15 69° SSE 15:45:48 10° SW visible
24 Oct 3.2 17:21:08 60° ENE 17:22:28 81° N 17:29:01 10° W visible
24 Oct 4.4 19:08:29 36° WNW 19:08:29 36° WNW 19:12:03 10° WNW visible
25 Oct 3.7 14:49:56 10° ENE 14:56:14 48° SE 15:02:32 10° SW visible
25 Oct 3.2 16:36:43 36° ENE 16:39:41 88° SSE 16:46:17 10° WSW visible
25 Oct 3.6 18:24:04 59° WNW 18:24:04 59° WNW 18:29:17 10° W visible
25 Oct 5.5 20:11:25 15° WNW 20:11:25 15° WNW 20:12:25 10° WNW visible
26 Oct 3.3 15:52:18 21° ENE 15:56:49 69° SSE 16:03:22 10° SW visible
26 Oct 3.1 17:39:39 78° NE 17:40:01 81° N 17:46:35 10° W visible
26 Oct 4.9 19:27:00 26° WNW 19:27:00 26° WNW 19:29:36 10° WNW visible
27 Oct 3.6 15:07:53 12° ENE 15:13:48 48° SE 15:20:06 10° SW visible
27 Oct 3.1 16:55:15 49° ENE 16:57:15 88° SSE 17:03:50 10° WSW visible
27 Oct 4.1 18:42:36 44° WNW 18:42:36 44° WNW 18:46:51 10° W visible
27 Oct 5.8 20:29:57 10° WNW 20:29:57 10° WNW 20:29:58 10° WNW visible
28 Oct 3.2 16:10:51 29° ENE 16:14:23 69° SSE 16:20:55 10° WSW visible
28 Oct 3.3 17:58:12 73° WNW 17:58:12 73° WNW 18:04:07 10° W visible
28 Oct 5.3 19:45:34 19° WNW 19:45:34 19° WNW 19:47:09 10° WNW visible
29 Oct 3.6 15:26:28 17° ENE 15:31:21 48° SE 15:37:39 10° SW visible
29 Oct 3.1 17:13:49 68° ENE 17:14:48 88° SSE 17:21:23 10° WSW visible
29 Oct 4.6 19:01:11 32° WNW 19:01:11 32° WNW 19:04:24 10° W visible
30 Oct 4.2 14:42:28 10° ENE 14:48:09 31° SE 14:53:48 10° SSW visible
30 Oct 3.2 16:29:27 40° E 16:31:56 70° SSE 16:38:28 10° WSW visible
30 Oct 3.8 18:16:49 53° W 18:16:49 53° W 18:21:41 10° W visible
30 Oct 5.6 20:04:11 13° WNW 20:04:11 13° WNW 20:04:43 10° WNW visible
31 Oct 3.6 15:45:06 24° E 15:48:54 48° SE 15:55:13 10° SW visible
31 Oct 3.1 17:32:28 87° SW 17:32:28 87° SW 17:38:56 10° WSW visible
31 Oct 5.1 19:19:49 23° W 19:19:49 23° W 19:21:57 10° W visible
